EW1948 Weather Reports


Display with metric or nautical units.
time (UTC)temp
F
wind
direction
speed
MPH
gust
MPH
rain 1hr
in
rain 24hr
in
rain mn
in
humidity
%
barometer
mb
20260831115515 70 0.0 0.0 0.00 0.00 0.00 85 1017.1
20260831114515 70 0.0 1.0 0.00 0.00 0.00 85 1017.1
20260831113536 70 0.0 0.0 0.00 0.00 0.00 84 1017.1
20260831112515 70 0.0 1.0 0.00 0.00 0.00 84 1017.0
20260831111515 70 0.0 2.0 0.00 0.00 0.00 84 1017.2
20260831110515 70 135 1.0 3.0 0.00 0.00 0.00 84 1017.1
20260831105516 70 0.0 2.0 0.00 0.00 0.00 83 1017.1
20260831104515 70 0.0 0.0 0.00 0.00 0.00 83 1017.1
20260831103515 70 0.0 1.0 0.00 0.00 0.00 83 1017.1
20260831102515 70 0.0 1.0 0.00 0.00 0.00 83 1017.1
20260831101515 70 0.0 0.0 0.00 0.00 0.00 84 1017.1
20260831100515 70 0.0 0.0 0.00 0.00 0.00 84 1017.0
20260831095515 69 0.0 0.0 0.00 0.00 0.00 84 1017.0
20260831094516 70 0.0 0.0 0.00 0.00 0.00 84 1017.1
20260831093555 70 0.0 0.0 0.00 0.00 0.00 84 1017.1
20260831092535 70 0.0 0.0 0.00 0.00 0.00 83 1017.0
20260831091536 70 0.0 0.0 0.00 0.00 0.00 83 1016.9
20260831090515 71 0.0 0.0 0.00 0.00 0.00 82 1016.8
20260831085515 71 0.0 0.0 0.00 0.00 0.00 82 1016.7
20260831084536 71 0.0 0.0 0.00 0.00 0.00 82 1016.6
20260831083515 71 0.0 0.0 0.00 0.00 0.00 81 1016.4
20260831082515 71 0.0 0.0 0.00 0.00 0.00 81 1016.4
20260831081515 71 0.0 1.0 0.00 0.00 0.00 80 1016.3
20260831080515 71 0.0 0.0 0.00 0.00 0.00 80 1016.2
20260831075515 71 0.0 0.0 0.00 0.00 0.00 80 1016.3
20260831074515 71 0.0 0.0 0.00 0.00 0.00 80 1016.2
20260831073515 71 0.0 0.0 0.00 0.00 0.00 81 1016.2
20260831072535 71 0.0 1.0 0.00 0.00 0.00 81 1016.4
20260831071515 71 0.0 0.0 0.00 0.00 0.00 83 1016.4
20260831070515 71 0.0 0.0 0.00 0.00 0.00 84 1016.4
20260831065515 71 0.0 0.0 0.00 0.00 0.00 84 1016.5
20260831064515 71 0.0 0.0 0.00 0.00 0.00 83 1016.6
20260831063515 71 0.0 0.0 0.00 0.00 0.00 83 1016.7
20260831062535 72 0.0 0.0 0.00 0.00 0.00 82 1016.8
20260831061515 72 0.0 0.0 0.00 0.00 0.00 81 1016.9
20260831060515 72 0.0 0.0 0.00 0.00 0.00 80 1016.8
20260831055515 73 0.0 0.0 0.00 0.00 0.00 80 1016.8
20260831054535 73 0.0 0.0 0.00 0.00 0.00 78 1016.8
20260831053515 73 0.0 0.0 0.00 0.00 0.00 77 1016.7
20260831052515 74 0.0 0.0 0.00 0.00 0.00 76 1016.8
20260831051515 74 0.0 2.0 0.00 0.00 0.00 76 1016.6
20260831050515 74 113 1.0 3.0 0.00 0.00 0.00 76 1016.6
20260831045515 74 0.0 1.0 0.00 0.00 0.00 78 1016.6
20260831044515 74 0.0 0.0 0.00 0.00 0.00 78 1016.5
20260831043515 74 0.0 0.0 0.00 0.00 0.00 78 1016.5
20260831042515 74 0.0 0.0 0.00 0.00 0.00 78 1016.5
20260831041515 74 0.0 0.0 0.00 0.00 0.00 77 1016.5
20260831040516 74 0.0 0.0 0.00 0.00 0.00 76 1016.4
20260831035515 74 0.0 0.0 0.00 0.00 0.00 76 1016.5
20260831034515 74 0.0 0.0 0.00 0.00 0.00 75 1016.3
20260831033515 75 0.0 0.0 0.00 0.00 0.00 75 1016.3
20260831032515 75 0.0 0.0 0.00 0.00 0.00 74 1016.3
20260831031535 75 0.0 0.0 0.00 0.00 0.00 74 1016.3
20260831030515 76 0.0 0.0 0.00 0.00 0.00 72 1016.2
20260831025515 76 0.0 0.0 0.00 0.00 0.00 71 1016.2
20260831024515 77 0.0 0.0 0.00 0.00 0.00 69 1016.2
20260831023516 79 0.0 0.0 0.00 0.00 0.00 66 1016.3
20260831022515 79 0.0 0.0 0.00 0.00 0.00 64 1016.2
20260831021515 80 0.0 1.0 0.00 0.00 0.00 63 1016.1
20260831020515 80 0.0 2.0 0.00 0.00 0.00 63 1016.1
20260831015555 81 0.0 0.0 0.00 0.00 0.00 61 1016.1
20260831014515 82 0.0 3.0 0.00 0.00 0.00 60 1015.9
20260831013515 82 113 1.0 3.0 0.00 0.00 0.00 59 1015.7
20260831012535 83 135 2.0 4.0 0.00 0.00 0.00 59 1015.7
20260831011515 83 135 1.0 4.0 0.00 0.00 0.00 58 1015.6
20260831010535 84 113 1.0 3.0 0.00 0.00 0.00 57 1015.5
20260831005515 84 135 1.0 2.0 0.00 0.00 0.00 56 1015.3
20260831004515 85 135 2.0 4.0 0.00 0.00 0.00 55 1015.3
20260831003515 85 135 2.0 4.0 0.00 0.00 0.00 54 1015.3
20260831002515 86 135 4.0 8.0 0.00 0.00 0.00 52 1015.3
20260831001515 87 135 3.0 8.0 0.00 0.00 0.00 51 1015.4
20260831000515 87 158 3.0 8.0 0.00 0.00 0.00 51 1015.3
20260830235515 88 135 3.0 7.0 0.00 0.00 0.00 49 1015.4
20260830234515 88 135 3.0 8.0 0.00 0.00 0.00 48 1015.5
20260830233535 89 135 5.0 11.0 0.00 0.00 0.00 47 1015.5
20260830232515 89 158 3.0 8.0 0.00 0.00 0.00 46 1015.6
20260830231515 90 135 4.0 10.0 0.00 0.00 0.00 45 1015.5
20260830230515 90 135 4.0 10.0 0.00 0.00 0.00 43 1015.5
20260830225515 91 135 6.0 14.0 0.00 0.00 0.00 42 1015.5
20260830224515 91 135 5.0 11.0 0.00 0.00 0.00 42 1015.5
20260830223515 92 135 4.0 12.0 0.00 0.00 0.00 41 1015.6
20260830222515 92 113 4.0 10.0 0.00 0.00 0.00 41 1015.5
20260830221515 93 113 3.0 6.0 0.00 0.00 0.00 40 1015.4
20260830220515 93 113 6.0 13.0 0.00 0.00 0.00 39 1015.5
20260830215515 94 135 4.0 9.0 0.00 0.00 0.00 38 1015.5
20260830214515 94 225 4.0 13.0 0.00 0.00 0.00 36 1015.4
20260830213515 94 135 4.0 8.0 0.00 0.00 0.00 36 1015.4
20260830212515 94 180 4.0 8.0 0.00 0.00 0.00 36 1015.5
20260830211514 94 158 3.0 8.0 0.00 0.00 0.00 37 1015.6
20260830210515 94 113 4.0 11.0 0.00 0.00 0.00 35 1015.8
20260830205515 94 158 4.0 9.0 0.00 0.00 0.00 36 1015.9
20260830204515 94 135 5.0 11.0 0.00 0.00 0.00 34 1015.7
20260830203514 94 180 4.0 7.0 0.00 0.00 0.00 34 1015.8
20260830202515 94 158 4.0 8.0 0.00 0.00 0.00 34 1016.0
20260830201515 94 180 4.0 8.0 0.00 0.00 0.00 35 1016.2
20260830200515 94 180 5.0 9.0 0.00 0.00 0.00 35 1016.2
20260830195515 93 158 4.0 9.0 0.00 0.00 0.00 36 1016.4
20260830194515 93 180 4.0 8.0 0.00 0.00 0.00 35 1016.5
20260830193514 93 180 4.0 8.0 0.00 0.00 0.00 36 1016.7
20260830192515 92 113 5.0 10.0 0.00 0.00 0.00 37 1016.8
20260830191514 92 158 4.0 7.0 0.00 0.00 0.00 36 1016.8
20260830190514 92 158 5.0 12.0 0.00 0.00 0.00 37 1017.0
20260830185514 92 158 4.0 11.0 0.00 0.00 0.00 38 1016.9
20260830184515 91 180 4.0 8.0 0.00 0.00 0.00 38 1017.0
20260830183515 91 135 5.0 10.0 0.00 0.00 0.00 38 1017.1
20260830182535 91 135 4.0 7.0 0.00 0.00 0.00 40 1017.1
20260830181515 90 113 5.0 11.0 0.00 0.00 0.00 40 1017.1
20260830180514 90 113 5.0 10.0 0.00 0.00 0.00 42 1017.3
20260830175514 90 135 5.0 10.0 0.00 0.00 0.00 42 1017.5
20260830174514 90 158 5.0 9.0 0.00 0.00 0.00 42 1017.6
20260830173514 90 158 4.0 9.0 0.00 0.00 0.00 42 1017.7
20260830172514 89 180 3.0 8.0 0.00 0.00 0.00 43 1017.8
20260830171534 89 203 3.0 5.0 0.00 0.00 0.00 39 1018.0
20260830170514 89 180 3.0 5.0 0.00 0.00 0.00 41 1018.2
20260830165514 88 135 3.0 7.0 0.00 0.00 0.00 44 1018.2
20260830164514 88 225 4.0 9.0 0.00 0.00 0.00 43 1018.4
20260830163554 87 203 3.0 7.0 0.00 0.00 0.00 44 1018.4
20260830162514 87 180 4.0 8.0 0.00 0.00 0.00 45 1018.4
20260830161514 87 135 3.0 7.0 0.00 0.00 0.00 47 1018.5
20260830160514 86 203 3.0 7.0 0.00 0.00 0.00 49 1018.4
20260830155514 85 180 5.0 9.0 0.00 0.00 0.00 49 1018.2
20260830154514 84 180 3.0 6.0 0.00 0.00 0.00 52 1018.0
20260830153514 84 180 4.0 9.0 0.00 0.00 0.00 55 1018.0
20260830152514 83 180 3.0 6.0 0.00 0.00 0.00 56 1017.9
20260830151514 82 158 3.0 7.0 0.00 0.00 0.00 57 1018.0
20260830150514 81 180 3.0 7.0 0.00 0.00 0.00 58 1017.9
20260830145514 80 158 3.0 7.0 0.00 0.00 0.00 59 1018.0
20260830144514 80 180 3.0 8.0 0.00 0.00 0.00 62 1018.0
20260830143514 79 158 3.0 7.0 0.00 0.00 0.00 63 1018.0
20260830142514 78 203 3.0 5.0 0.00 0.00 0.00 66 1017.9
20260830141514 77 180 3.0 6.0 0.00 0.00 0.00 69 1017.8
20260830140514 76 203 3.0 5.0 0.00 0.00 0.00 71 1017.8
20260830135554 75 135 3.0 8.0 0.00 0.00 0.00 73 1017.8
20260830134514 74 180 3.0 5.0 0.00 0.00 0.00 76 1018.0
20260830133514 73 158 2.0 5.0 0.00 0.00 0.00 81 1018.0
20260830132514 72 113 2.0 5.0 0.00 0.00 0.00 84 1018.1
20260830131514 71 135 2.0 7.0 0.00 0.00 0.00 86 1018.3
20260830130534 70 135 2.0 3.0 0.00 0.00 0.00 87 1018.3
20260830125514 69 135 2.0 4.0 0.00 0.00 0.00 88 1018.2
20260830124514 68 158 1.0 3.0 0.00 0.00 0.00 89 1018.1
20260830123514 68 135 1.0 3.0 0.00 0.00 0.00 89 1018.1
20260830122514 67 158 1.0 3.0 0.00 0.00 0.00 88 1018.0
20260830121514 67 0.0 2.0 0.00 0.00 0.00 87 1018.2
20260830120514 66 0.0 0.0 0.00 0.00 0.00 87 1018.1